Location: Unspecified
(0.0000°N, 0.0000°E)
Time: 09:52:23
(UTC+00:00)

CZ-3B DEB - Pass Details

Date: 19 February 2026
Orbit: 643 x 41817 km, 26.5° (Epoch: 5 March)

Event Time Altitude Azimuth Distance (km) Brightness Sun altitude
Exits shadow 04:28:59 22° 266° (W) 14,904 ? -25.7°
Maximum altitude 05:40:23 38° 248° (WSW) 27,102 ? -8.2°
Drops below altitude 10° 10:09:43 10° 244° (WSW) 46,638 ? 57.2°
Sets 11:29:13 0° 244° (WSW) 45,761 ? 74.3°
